Capitol Logistics 2519


KMEM
Memphis International Airport
Memphis, Tennessee, US
KOAK
Metropolitan Oakland International Airport
Oakland, California, US

Route Details

Aircraft Information
Primary: Boeing 747-400BCF
Backup: Boeing 767-300BDSF
Date Restrictions
Between:Nov 16, 2019
Dec 31, 2019
Route Data
Distance: 1561nm
Sched. Duration: 3h 49m
Avg. Duration: 4h 02m (+53m)
Times Flown: 3
Recm'd Route: ZUMIT4 FOXOM KM33I KM36G TUL HALEN DVC ROCCY Q164 KITTN JSICA MONOH OAKES2
Planned Altitude: 34,000ft
Origin Wx: KMEM 051554Z 28006KT 10SM FEW040 SCT250 31/24 A2994 RMK AO2 SLP134 T03110239
Dest. Wx: KOAK 051622Z 24018G23KT 10SM BKN017 16/11 A2982 RMK AO2 T01560106
Notes: SEASONAL FLIGHT | FEDEX SURGE OPS CONTRACT

Financial History
Total Freight: 422,876lbs
Average Load: 140,959lbs/flt
Fuel Used: 196,714lbs
Avg. Fuel Used: 65,571lbs/flt
Fuel Expense: $206,550
Avg. Fuel Expense: $68,850
Avg. Fuel Cost: $1.05/lbs
Total Gross Income: $799,236
Pilot Pay: $537
Total Expenses: $86,473
Total Revenue: $502,727
Average Revenue: $266,411.88